"Pseudo-MPEC" for ZTs0238

Created 2024 Jul 23 2:22:07 UT using Find_Orb

Click here for an explanation of pseudo-MPECs

 
 Astrometry: 
     ZTs0238* C2024 07 16.39594 23 34 06.67 +14 47 13.0    ~7I2b 17.66RUNEOCPI41
     ZTs0238  C2024 07 16.39629 23 34 05.15 +14 47 35.6    ~7I2b 17.66RUNEOCPI41
     ZTs0238  C2024 07 16.43340 23 31 26.10 +15 27 03.2    ~7I2b 18.36gUNEOCPI41
     ZTs0238  C2024 07 16.43375 23 31 24.58 +15 27 24.9    ~7I2b 18.36gUNEOCPI41

Station data:
(I41) Palomar Mountain--ZTF  (N33.357336 W116.859780)  US/California.
   Observers B. T. Bolin, Z. T. F. Collaboration. Measurers B. T. Bolin,
   Z.-Y. Lin, F. J. Masci. 1.2-m f/2.4 Schmidt.

Orbital elements:  ZTs0238
   Perihelion 2024 Apr 22.85376 +/- 60.5 TT = 20:29:25 (JD 2460423.35376)
Epoch 2024 Jul 16.0 TT = JDT 2460507.5   Earth MOID: 0.0058      AutoNEOCP
M  79.18765439 +/- 110              (J2000 ecliptic)
n   0.94107184 +/- 0.819            Peri.  261.65257 +/- 90
a   1.03130596 +/- 0.599            Node   295.07931 +/- 60
e   0.1693953 +/- 0.255             Incl.   46.18819 +/- 54
P   1.047/382.535d         H 23.17  G  0.15   U 12.6  SR
q 0.85660750 +/- 0.365    Q 1.20600441 +/- 10.5
From 4 observations 2024 July 16 (54.4 min); mean residual 0".19
Residuals in arcseconds: 
240716 I41  .19+  .12-    240716 I41  .09+  .29+    
240716 I41  .20-  .12+    240716 I41  .09-  .29-    

Ephemerides (geocentric):
Date (UTC) HH   RA             Dec           delta  r     elong  mag " sig PA
---- --------  ------------   ------------  ------ ------ -----  --- --------
2024 07 23 02  18 18 06.630   +47 59 15.71  .09444 1.0481 107.4 20.5  31d 121
2024 07 23 03  18 17 26.466   +47 58 55.92  .09497 1.0482 107.4 20.5  31d 121
2024 07 23 04  18 16 46.757   +47 58 35.41  .09549 1.0483 107.3 20.6  31d 121
2024 07 23 05  18 16 07.495   +47 58 14.20  .09602 1.0484 107.3 20.6  31d 121
2024 07 23 06  18 15 28.673   +47 57 52.33  .09655 1.0486 107.2 20.6  31d 121
2024 07 23 07  18 14 50.286   +47 57 29.82  .09707 1.0487 107.2 20.6  31d 121
2024 07 23 08  18 14 12.326   +47 57 06.69  .09760 1.0488 107.1 20.6  31d 121
2024 07 23 09  18 13 34.787   +47 56 42.96  .09813 1.0489 107.1 20.6  31d 121
2024 07 23 10  18 12 57.663   +47 56 18.65  .09866 1.0490 107.0 20.6  31d 121
2024 07 23 11  18 12 20.948   +47 55 53.79  .09918 1.0491 107.0 20.6  31d 121
2024 07 23 12  18 11 44.635   +47 55 28.40  .09971 1.0493 106.9 20.7  31d 121
2024 07 23 13  18 11 08.718   +47 55 02.50  .10024 1.0494 106.9 20.7  31d 121
2024 07 23 14  18 10 33.193   +47 54 36.11  .10077 1.0495 106.8 20.7  31d 121
2024 07 23 15  18 09 58.052   +47 54 09.24  .10130 1.0496 106.8 20.7  31d 121
2024 07 23 16  18 09 23.290   +47 53 41.92  .10183 1.0497 106.8 20.7  31d 121
2024 07 23 17  18 08 48.902   +47 53 14.16  .10236 1.0498 106.7 20.7  31d 121
2024 07 23 18  18 08 14.882   +47 52 45.98  .10289 1.0500 106.7 20.7  31d 121
2024 07 23 19  18 07 41.225   +47 52 17.40  .10342 1.0501 106.6 20.7  31d 121
2024 07 23 20  18 07 07.926   +47 51 48.42  .10395 1.0502 106.6 20.8  31d 121
2024 07 23 21  18 06 34.978   +47 51 19.08  .10448 1.0503 106.5 20.8  31d 121
2024 07 23 22  18 06 02.378   +47 50 49.38  .10501 1.0504 106.5 20.8  31d 121
2024 07 23 23  18 05 30.121   +47 50 19.33  .10554 1.0505 106.4 20.8  31d 121
2024 07 24 00  18 04 58.201   +47 49 48.96  .10607 1.0507 106.4 20.8  31d 121
2024 07 24 01  18 04 26.613   +47 49 18.27  .10660 1.0508 106.3 20.8  31d 121
2024 07 24 02  18 03 55.353   +47 48 47.28  .10713 1.0509 106.3 20.8  31d 121
2024 07 24 03  18 03 24.416   +47 48 16.00  .10766 1.0510 106.2 20.8  31d 121
2024 07 24 04  18 02 53.798   +47 47 44.44  .10820 1.0511 106.2 20.8  31d 121
2024 07 24 05  18 02 23.494   +47 47 12.62  .10873 1.0512 106.2 20.9  31d 121
2024 07 24 06  18 01 53.499   +47 46 40.55  .10926 1.0514 106.1 20.9  31d 121
2024 07 24 07  18 01 23.810   +47 46 08.23  .10979 1.0515 106.1 20.9  31d 121
2024 07 24 08  18 00 54.422   +47 45 35.68  .11033 1.0516 106.0 20.9  31d 121
2024 07 24 09  18 00 25.331   +47 45 02.91  .11086 1.0517 106.0 20.9  31d 121
2024 07 24 10  17 59 56.532   +47 44 29.93  .11139 1.0518 105.9 20.9  31d 121
2024 07 24 11  17 59 28.022   +47 43 56.75  .11192 1.0519 105.9 20.9  31d 121
2024 07 24 12  17 58 59.797   +47 43 23.37  .11246 1.0521 105.8 20.9  31d 121
2024 07 24 13  17 58 31.853   +47 42 49.82  .11299 1.0522 105.8 20.9  31d 121
2024 07 24 14  17 58 04.185   +47 42 16.09  .11353 1.0523 105.8 21.0  31d 121
2024 07 24 15  17 57 36.791   +47 41 42.19  .11406 1.0524 105.7 21.0  31d 121
2024 07 24 16  17 57 09.666   +47 41 08.14  .11459 1.0525 105.7 21.0  31d 121
2024 07 24 17  17 56 42.807   +47 40 33.94  .11513 1.0526 105.6 21.0  31d 121
2024 07 24 18  17 56 16.211   +47 39 59.60  .11566 1.0528 105.6 21.0  31d 121
2024 07 24 19  17 55 49.872   +47 39 25.13  .11620 1.0529 105.6 21.0  31d 121
2024 07 24 20  17 55 23.790   +47 38 50.53  .11673 1.0530 105.5 21.0  31d 121
2024 07 24 21  17 54 57.959   +47 38 15.81  .11727 1.0531 105.5 21.0  31d 121
2024 07 24 22  17 54 32.376   +47 37 40.98  .11780 1.0532 105.4 21.0  31d 121
2024 07 24 23  17 54 07.039   +47 37 06.04  .11834 1.0533 105.4 21.1  31d 121
2024 07 25 00  17 53 41.943   +47 36 31.01  .11887 1.0534 105.4 21.1  31d 121
2024 07 25 01  17 53 17.086   +47 35 55.88  .11941 1.0536 105.3 21.1  31d 121